Location: ????????
(55.5667°N, 37.5833°E)
Time: 18:26:07
(UTC+00:00)

Cosmos 1943 - Pass Details

Date: 14 April 2026
Orbit: 832 x 847 km, 71.0° (Epoch: 19 May)

Event Time Altitude Azimuth Distance (km) Brightness Sun altitude
Exits shadow 22:34:12 20° 266° (W) 1,871 4.8 -23.4°
Maximum altitude 22:37:32 37° 321° (NW) 1,307 4.4 -23.2°
Drops below altitude 10° 22:42:46 10° 28° (NNE) 2,476 6.7 -23.0°
Sets 22:45:26 0° 37° (NE) 3,411 7.6 -22.9°
